Year,Month,Day,Hour,Minute,Value (Times are PST for temperature in C)
2014,04,17,01,26,9.10
2014,04,17,01,27,9.10
2014,04,17,01,28,9.10
2014,04,17,01,29,9.10
2014,04,17,01,30,9.10
2014,04,17,01,31,9.10
2014,04,17,01,32,9.10
2014,04,17,01,33,9.10
2014,04,17,01,34,9.10
2014,04,17,01,35,9.10
2014,04,17,01,36,9.10
2014,04,17,01,37,9.10
2014,04,17,01,38,9.10
2014,04,17,01,39,9.10
2014,04,17,01,40,9.10
2014,04,17,01,41,9.10
2014,04,17,01,42,9.10
2014,04,17,01,43,9.10
2014,04,17,01,44,9.10
2014,04,17,01,45,9.10
2014,04,17,01,46,9.10
2014,04,17,01,47,9.10
2014,04,17,01,48,9.10
2014,04,17,01,49,9.10
2014,04,17,01,50,9.10
2014,04,17,01,51,9.10
2014,04,17,01,52,9.10
2014,04,17,01,53,9.10
2014,04,17,01,54,9.10
2014,04,17,01,55,9.10
2014,04,17,01,56,9.10
2014,04,17,01,57,9.10
2014,04,17,01,58,9.10
2014,04,17,01,59,9.10
2014,04,17,02,00,9.10
2014,04,17,02,01,9.10
2014,04,17,02,02,9.10
2014,04,17,02,03,9.10
2014,04,17,02,04,9.10
2014,04,17,02,05,9.10
2014,04,17,02,06,9.10
2014,04,17,02,07,9.10
2014,04,17,02,08,9.10
2014,04,17,02,09,9.10
2014,04,17,02,10,9.10
2014,04,17,02,11,9.10
2014,04,17,02,12,9.10
2014,04,17,02,13,9.10
2014,04,17,02,14,9.10
2014,04,17,02,15,9.10
2014,04,17,02,16,9.10
2014,04,17,02,17,9.10
2014,04,17,02,18,9.10
2014,04,17,02,19,9.10
2014,04,17,02,20,9.10
2014,04,17,02,21,9.10
2014,04,17,02,22,9.10
2014,04,17,02,23,9.10
2014,04,17,02,24,9.10
2014,04,17,02,25,9.10
2014,04,17,02,26,9.10
2014,04,17,02,27,9.30
2014,04,17,02,28,9.30
2014,04,17,02,29,9.30
2014,04,17,02,30,9.30
2014,04,17,02,31,9.30
2014,04,17,02,32,9.30
2014,04,17,02,33,9.30
2014,04,17,02,34,9.30
2014,04,17,02,35,9.30
2014,04,17,02,36,9.30
2014,04,17,02,37,9.30
2014,04,17,02,38,9.30
2014,04,17,02,39,9.30
2014,04,17,02,40,9.30
2014,04,17,02,41,9.30
2014,04,17,02,42,9.30
2014,04,17,02,43,9.30
2014,04,17,02,44,9.30
2014,04,17,02,45,9.30
2014,04,17,02,46,9.30
2014,04,17,02,47,9.30
2014,04,17,02,48,9.30
2014,04,17,02,49,9.30
2014,04,17,02,50,9.30
2014,04,17,02,51,9.30
2014,04,17,02,52,9.30
2014,04,17,02,53,9.30
2014,04,17,02,54,9.30
2014,04,17,02,55,9.30
2014,04,17,02,56,9.30
2014,04,17,02,57,9.30
2014,04,17,02,58,9.30
2014,04,17,02,59,9.30
2014,04,17,03,00,9.30
2014,04,17,03,01,9.30
2014,04,17,03,02,9.30
2014,04,17,03,03,9.30
2014,04,17,03,04,9.30
2014,04,17,03,05,9.30
2014,04,17,03,06,9.30
2014,04,17,03,07,9.30
2014,04,17,03,08,9.30
2014,04,17,03,09,9.30
2014,04,17,03,10,9.30
2014,04,17,03,11,9.30
2014,04,17,03,12,9.30
2014,04,17,03,13,9.30
2014,04,17,03,14,9.30
2014,04,17,03,15,9.30
2014,04,17,03,16,9.30
2014,04,17,03,17,9.30
2014,04,17,03,18,9.30
2014,04,17,03,19,9.30
2014,04,17,03,20,9.30
2014,04,17,03,21,9.30
2014,04,17,03,22,9.30
2014,04,17,03,23,9.30
2014,04,17,03,24,9.30
2014,04,17,03,25,9.30
2014,04,17,03,26,9.30
2014,04,17,03,27,9.00
2014,04,17,03,28,9.00
2014,04,17,03,29,9.00
2014,04,17,03,30,9.00
2014,04,17,03,31,9.00
2014,04,17,03,32,9.00
2014,04,17,03,33,9.00
2014,04,17,03,34,9.00
2014,04,17,03,35,9.00
2014,04,17,03,36,9.00
2014,04,17,03,37,9.00
2014,04,17,03,38,9.00
2014,04,17,03,39,9.00
2014,04,17,03,40,9.00
2014,04,17,03,41,9.00
2014,04,17,03,42,9.00
2014,04,17,03,43,9.00
2014,04,17,03,44,9.00
2014,04,17,03,45,9.00
2014,04,17,03,46,9.00
2014,04,17,03,47,9.00
2014,04,17,03,48,9.00
2014,04,17,03,49,9.00
2014,04,17,03,50,9.00
2014,04,17,03,51,9.00
2014,04,17,03,52,9.00
2014,04,17,03,53,9.00
2014,04,17,03,54,9.00
2014,04,17,03,55,9.00
2014,04,17,03,56,9.00
2014,04,17,03,57,9.00
2014,04,17,03,58,9.00
2014,04,17,03,59,9.00
2014,04,17,04,00,9.00
2014,04,17,04,01,9.00
2014,04,17,04,02,9.00
2014,04,17,04,03,9.00
2014,04,17,04,04,9.00
2014,04,17,04,05,9.00
2014,04,17,04,06,9.00
2014,04,17,04,07,9.00
2014,04,17,04,08,9.00
2014,04,17,04,09,9.00
2014,04,17,04,10,9.00
2014,04,17,04,11,9.00
2014,04,17,04,12,9.00
2014,04,17,04,13,9.00
2014,04,17,04,14,9.00
2014,04,17,04,15,9.00
2014,04,17,04,16,9.00
2014,04,17,04,17,9.00
2014,04,17,04,18,9.00
2014,04,17,04,19,9.00
2014,04,17,04,20,9.00
2014,04,17,04,21,9.00
2014,04,17,04,22,9.00
2014,04,17,04,23,9.00
2014,04,17,04,24,9.00
2014,04,17,04,25,9.00
2014,04,17,04,26,9.00
2014,04,17,04,27,9.00
2014,04,17,04,28,9.10
2014,04,17,04,29,9.10
2014,04,17,04,30,9.10
2014,04,17,04,31,9.10
2014,04,17,04,32,9.10
2014,04,17,04,33,9.10
2014,04,17,04,34,9.10
2014,04,17,04,35,9.10
2014,04,17,04,36,9.10
2014,04,17,04,37,9.10
2014,04,17,04,38,9.10
2014,04,17,04,39,9.10
2014,04,17,04,40,9.10
2014,04,17,04,41,9.10
2014,04,17,04,42,9.10
2014,04,17,04,43,9.10
2014,04,17,04,44,9.10
2014,04,17,04,45,9.10
2014,04,17,04,46,9.10
2014,04,17,04,47,9.10
2014,04,17,04,48,9.10
2014,04,17,04,49,9.10
2014,04,17,04,50,9.10
2014,04,17,04,51,9.10
2014,04,17,04,52,9.10
2014,04,17,04,53,9.10
2014,04,17,04,54,9.10
2014,04,17,04,55,9.10
2014,04,17,04,56,9.10
2014,04,17,04,57,9.10
2014,04,17,04,58,9.10
2014,04,17,04,59,9.10
2014,04,17,05,00,9.10
2014,04,17,05,01,9.10
2014,04,17,05,02,9.10
2014,04,17,05,03,9.10
2014,04,17,05,04,9.10
2014,04,17,05,05,9.10
2014,04,17,05,06,9.10
2014,04,17,05,07,9.10
2014,04,17,05,08,9.10
2014,04,17,05,09,9.10
2014,04,17,05,10,9.10
2014,04,17,05,11,9.10
2014,04,17,05,12,9.10
2014,04,17,05,13,9.10
2014,04,17,05,14,9.10
2014,04,17,05,15,9.10
2014,04,17,05,16,9.10
2014,04,17,05,17,9.10
2014,04,17,05,18,9.10
2014,04,17,05,19,9.10
2014,04,17,05,20,9.10
2014,04,17,05,21,9.10
2014,04,17,05,22,9.10
2014,04,17,05,23,9.10
2014,04,17,05,24,9.10
2014,04,17,05,25,9.10
2014,04,17,05,26,9.10
2014,04,17,05,27,9.10
2014,04,17,05,28,9.00
2014,04,17,05,29,9.00
2014,04,17,05,30,9.00
2014,04,17,05,31,9.00
2014,04,17,05,32,9.00
2014,04,17,05,33,9.00
2014,04,17,05,34,9.00
2014,04,17,05,35,9.00
2014,04,17,05,36,9.00
2014,04,17,05,37,9.00
2014,04,17,05,38,9.00
2014,04,17,05,39,9.00
2014,04,17,05,40,9.00
2014,04,17,05,41,9.00
2014,04,17,05,42,9.00
2014,04,17,05,43,9.00
2014,04,17,05,44,9.00
2014,04,17,05,45,9.00
2014,04,17,05,46,9.00
2014,04,17,05,47,9.00
2014,04,17,05,48,9.00
2014,04,17,05,49,9.00
2014,04,17,05,50,9.00
2014,04,17,05,51,9.00
2014,04,17,05,52,9.00
2014,04,17,05,53,9.00
2014,04,17,05,54,9.00
2014,04,17,05,55,9.00
2014,04,17,05,56,9.00
2014,04,17,05,57,9.00
2014,04,17,05,58,9.00
2014,04,17,05,59,9.00
2014,04,17,06,00,9.00
2014,04,17,06,01,9.00
2014,04,17,06,02,9.00
2014,04,17,06,03,9.00
2014,04,17,06,04,9.00
2014,04,17,06,05,9.00
2014,04,17,06,06,9.00
2014,04,17,06,07,9.00
2014,04,17,06,08,9.00
2014,04,17,06,09,9.00
2014,04,17,06,10,9.00
2014,04,17,06,11,9.00
2014,04,17,06,12,9.00
2014,04,17,06,13,9.00
2014,04,17,06,14,9.00
2014,04,17,06,15,9.00
2014,04,17,06,16,9.00
2014,04,17,06,17,9.00
2014,04,17,06,18,9.00
2014,04,17,06,19,9.00
2014,04,17,06,20,9.00
2014,04,17,06,21,9.00
2014,04,17,06,22,9.00
2014,04,17,06,23,9.00
2014,04,17,06,24,9.00
2014,04,17,06,25,9.00
2014,04,17,06,26,9.00
2014,04,17,06,27,9.00
2014,04,17,06,28,9.00
2014,04,17,06,29,8.90
2014,04,17,06,30,8.90
2014,04,17,06,31,8.90
2014,04,17,06,32,8.90
2014,04,17,06,33,8.90
2014,04,17,06,34,8.90
2014,04,17,06,35,8.90
2014,04,17,06,36,8.90
2014,04,17,06,37,8.90
2014,04,17,06,38,8.90
2014,04,17,06,39,8.90
2014,04,17,06,40,8.90
2014,04,17,06,41,8.90
2014,04,17,06,42,8.90
2014,04,17,06,43,8.90
2014,04,17,06,44,8.90
2014,04,17,06,45,8.90
2014,04,17,06,46,8.90
2014,04,17,06,47,8.90
2014,04,17,06,48,8.90
2014,04,17,06,49,8.90
2014,04,17,06,50,8.90
2014,04,17,06,51,8.90
2014,04,17,06,52,8.90
2014,04,17,06,53,8.90
2014,04,17,06,54,8.90
2014,04,17,06,55,8.90
2014,04,17,06,56,8.90
2014,04,17,06,57,8.90
2014,04,17,06,58,8.90
2014,04,17,06,59,8.90
2014,04,17,07,00,8.90
2014,04,17,07,01,8.90
2014,04,17,07,02,8.90
2014,04,17,07,03,8.90
2014,04,17,07,04,8.90
2014,04,17,07,05,8.90
2014,04,17,07,06,8.90
2014,04,17,07,07,8.90
2014,04,17,07,08,8.90
2014,04,17,07,09,8.90
2014,04,17,07,10,8.90
2014,04,17,07,11,8.90
2014,04,17,07,12,8.90
2014,04,17,07,13,8.90
2014,04,17,07,14,8.90
2014,04,17,07,15,8.90
2014,04,17,07,16,8.90
2014,04,17,07,17,8.90
2014,04,17,07,18,8.90
2014,04,17,07,19,8.90
2014,04,17,07,20,8.90
2014,04,17,07,21,8.90
2014,04,17,07,22,8.90
2014,04,17,07,23,8.90
2014,04,17,07,24,8.90
2014,04,17,07,25,8.90
2014,04,17,07,26,8.90
2014,04,17,07,27,8.90
2014,04,17,07,28,8.90
2014,04,17,07,29,8.90
2014,04,17,07,30,8.90
2014,04,17,07,31,8.90
2014,04,17,07,32,8.90
2014,04,17,07,33,8.90
2014,04,17,07,34,8.90
2014,04,17,07,35,8.90
2014,04,17,07,36,8.90
2014,04,17,07,37,8.90
2014,04,17,07,38,8.90
2014,04,17,07,39,8.90
2014,04,17,07,40,8.90
2014,04,17,07,41,8.90
2014,04,17,07,42,8.90
2014,04,17,07,43,8.90
2014,04,17,07,44,8.90
2014,04,17,07,45,8.90
2014,04,17,07,46,8.90
2014,04,17,07,47,8.90
2014,04,17,07,48,8.90
2014,04,17,07,49,8.90
2014,04,17,07,50,8.90
2014,04,17,07,51,8.90
2014,04,17,07,52,8.90
2014,04,17,07,53,8.90
2014,04,17,07,54,8.90
2014,04,17,07,55,8.90
2014,04,17,07,56,8.90
2014,04,17,07,57,8.90
2014,04,17,07,58,8.90
2014,04,17,07,59,8.90
2014,04,17,08,00,8.90
2014,04,17,08,01,8.90
2014,04,17,08,02,8.90
2014,04,17,08,03,8.90
2014,04,17,08,04,8.90
2014,04,17,08,05,8.90
2014,04,17,08,06,8.90
2014,04,17,08,07,8.90
2014,04,17,08,08,8.90
2014,04,17,08,09,8.90
2014,04,17,08,10,8.90
2014,04,17,08,11,8.90
2014,04,17,08,12,8.90
2014,04,17,08,13,8.90
2014,04,17,08,14,8.90
2014,04,17,08,15,8.90
2014,04,17,08,16,8.90
2014,04,17,08,17,8.90
2014,04,17,08,18,8.90
2014,04,17,08,19,8.90
2014,04,17,08,20,8.90
2014,04,17,08,21,8.90
2014,04,17,08,22,8.90
2014,04,17,08,23,8.90
2014,04,17,08,24,8.90
2014,04,17,08,25,8.90
2014,04,17,08,26,8.90
2014,04,17,08,27,8.90
2014,04,17,08,28,8.90
2014,04,17,08,29,8.90
2014,04,17,08,30,8.90
2014,04,17,08,31,9.00
2014,04,17,08,32,9.00
2014,04,17,08,33,9.00
2014,04,17,08,34,9.00
2014,04,17,08,35,9.00
2014,04,17,08,36,9.00
2014,04,17,08,37,9.00
2014,04,17,08,38,9.00
2014,04,17,08,39,9.00
2014,04,17,08,40,9.00
2014,04,17,08,41,9.00
2014,04,17,08,42,9.00
2014,04,17,08,43,9.00
2014,04,17,08,44,9.00
2014,04,17,08,45,9.00
2014,04,17,08,46,9.00
2014,04,17,08,47,9.00
2014,04,17,08,48,9.00
2014,04,17,08,49,9.00
2014,04,17,08,50,9.00
2014,04,17,08,51,9.00
2014,04,17,08,52,9.00
2014,04,17,08,53,9.00
2014,04,17,08,54,9.00
2014,04,17,08,55,9.00
2014,04,17,08,56,9.00
2014,04,17,08,57,9.00
2014,04,17,08,58,9.00
2014,04,17,08,59,9.00
2014,04,17,09,00,9.00
2014,04,17,09,01,9.00
2014,04,17,09,02,9.00
2014,04,17,09,03,9.00
2014,04,17,09,04,9.00
2014,04,17,09,05,9.00
2014,04,17,09,06,9.00
2014,04,17,09,07,9.00
2014,04,17,09,08,9.00
2014,04,17,09,09,9.00
2014,04,17,09,10,9.00
2014,04,17,09,11,9.00
2014,04,17,09,12,9.00
2014,04,17,09,13,9.00
2014,04,17,09,14,9.00
2014,04,17,09,15,9.00
2014,04,17,09,16,9.00
2014,04,17,09,17,9.00
2014,04,17,09,18,9.00
2014,04,17,09,19,9.00
2014,04,17,09,20,9.00
2014,04,17,09,21,9.00
2014,04,17,09,22,9.00
2014,04,17,09,23,9.00
2014,04,17,09,24,9.00
2014,04,17,09,25,9.00
2014,04,17,09,26,9.00
2014,04,17,09,27,9.00
2014,04,17,09,28,9.00
2014,04,17,09,29,9.00
2014,04,17,09,30,9.00
2014,04,17,09,31,9.10
2014,04,17,09,32,9.10
2014,04,17,09,33,9.10
2014,04,17,09,34,9.10
2014,04,17,09,35,9.10
2014,04,17,09,36,9.10
2014,04,17,09,37,9.10
2014,04,17,09,38,9.10
2014,04,17,09,39,9.10
2014,04,17,09,40,9.10
2014,04,17,09,41,9.10
2014,04,17,09,42,9.10
2014,04,17,09,43,9.10
2014,04,17,09,44,9.10
2014,04,17,09,45,9.10
2014,04,17,09,46,9.10
2014,04,17,09,47,9.10
2014,04,17,09,48,9.10
2014,04,17,09,49,9.10
2014,04,17,09,50,9.10
2014,04,17,09,51,9.10
2014,04,17,09,52,9.10
2014,04,17,09,53,9.10
2014,04,17,09,54,9.10
2014,04,17,09,55,9.10
2014,04,17,09,56,9.10
2014,04,17,09,57,9.10
2014,04,17,09,58,9.10
2014,04,17,09,59,9.10
2014,04,17,10,00,9.10
2014,04,17,10,01,9.10
2014,04,17,10,02,9.10
2014,04,17,10,03,9.10
2014,04,17,10,04,9.10
2014,04,17,10,05,9.10
2014,04,17,10,06,9.10
2014,04,17,10,07,9.10
2014,04,17,10,08,9.10
2014,04,17,10,09,9.10
2014,04,17,10,10,9.10
2014,04,17,10,11,9.10
2014,04,17,10,12,9.10
2014,04,17,10,13,9.10
2014,04,17,10,14,9.10
2014,04,17,10,15,9.10
2014,04,17,10,16,9.10
2014,04,17,10,17,9.10
2014,04,17,10,18,9.10
2014,04,17,10,19,9.10
2014,04,17,10,20,9.10
2014,04,17,10,21,9.10
2014,04,17,10,22,9.10
2014,04,17,10,23,9.10
2014,04,17,10,24,9.10
2014,04,17,10,25,9.10
2014,04,17,10,26,9.10
2014,04,17,10,27,9.10
2014,04,17,10,28,9.10
2014,04,17,10,29,9.10
2014,04,17,10,30,9.10
2014,04,17,10,31,9.10
2014,04,17,10,32,9.20
2014,04,17,10,33,9.20
2014,04,17,10,34,9.20
2014,04,17,10,36,9.20
2014,04,17,10,37,9.20
2014,04,17,10,38,9.20
2014,04,17,10,39,9.20
2014,04,17,10,40,9.20
2014,04,17,10,41,9.20
2014,04,17,10,42,9.20
2014,04,17,10,43,9.20
2014,04,17,10,44,9.20
2014,04,17,10,45,9.20
2014,04,17,10,46,9.20
2014,04,17,10,47,9.20
2014,04,17,10,48,9.20
2014,04,17,10,49,9.20
2014,04,17,10,50,9.20
2014,04,17,10,51,9.20
2014,04,17,10,52,9.20
2014,04,17,10,53,9.20
2014,04,17,10,54,9.20
2014,04,17,10,55,9.20
2014,04,17,10,56,9.20
2014,04,17,10,57,9.20
2014,04,17,10,58,9.20
2014,04,17,10,59,9.20
2014,04,17,11,00,9.20
2014,04,17,11,01,9.20
2014,04,17,11,02,9.20
2014,04,17,11,03,9.20
2014,04,17,11,04,9.20
2014,04,17,11,05,9.20
2014,04,17,11,06,9.20
2014,04,17,11,07,9.20
2014,04,17,11,08,9.20
2014,04,17,11,09,9.20
2014,04,17,11,10,9.20
2014,04,17,11,11,9.20
2014,04,17,11,12,9.20
2014,04,17,11,13,9.20
2014,04,17,11,14,9.20
2014,04,17,11,15,9.20
2014,04,17,11,16,9.20
2014,04,17,11,17,9.20
2014,04,17,11,18,9.20
2014,04,17,11,19,9.20
2014,04,17,11,20,9.20
2014,04,17,11,21,9.20
2014,04,17,11,22,9.20
2014,04,17,11,23,9.20
2014,04,17,11,24,9.20
2014,04,17,11,25,9.20
2014,04,17,11,26,9.20
2014,04,17,11,27,9.20
2014,04,17,11,28,9.20
2014,04,17,11,29,9.20
2014,04,17,11,30,9.20
2014,04,17,11,31,9.20
2014,04,17,11,32,9.70
2014,04,17,11,33,9.70
2014,04,17,11,34,9.70
2014,04,17,11,35,9.70
2014,04,17,11,36,9.70
2014,04,17,11,37,9.70
2014,04,17,11,38,9.70
2014,04,17,11,39,9.70
2014,04,17,11,40,9.70
2014,04,17,11,41,9.70
2014,04,17,11,42,9.70
2014,04,17,11,43,9.70
2014,04,17,11,44,9.70
2014,04,17,11,45,9.70
2014,04,17,11,46,9.70
2014,04,17,11,47,9.70
2014,04,17,11,48,9.70
2014,04,17,11,49,9.70
2014,04,17,11,50,9.70
2014,04,17,11,51,9.70
2014,04,17,11,52,9.70
2014,04,17,11,53,9.70
2014,04,17,11,54,9.70
2014,04,17,11,55,9.70
2014,04,17,11,56,9.70
2014,04,17,11,57,9.70
2014,04,17,11,58,9.70
2014,04,17,11,59,9.70
2014,04,17,12,00,9.70
2014,04,17,12,01,9.70
2014,04,17,12,02,9.70
2014,04,17,12,03,9.70
2014,04,17,12,04,9.70
2014,04,17,12,05,9.70
2014,04,17,12,06,9.70
2014,04,17,12,07,9.70
2014,04,17,12,08,9.70
2014,04,17,12,09,9.70
2014,04,17,12,10,9.70
2014,04,17,12,11,9.70
2014,04,17,12,12,9.70
2014,04,17,12,13,9.70
2014,04,17,12,14,9.70
2014,04,17,12,15,9.70
2014,04,17,12,16,9.70
2014,04,17,12,17,9.70
2014,04,17,12,18,9.70
2014,04,17,12,19,9.70
2014,04,17,12,20,9.70
2014,04,17,12,21,9.70
2014,04,17,12,22,9.70
2014,04,17,12,23,9.70
2014,04,17,12,24,9.70
2014,04,17,12,25,9.70
2014,04,17,12,26,9.70
2014,04,17,12,27,9.70
2014,04,17,12,28,9.70
2014,04,17,12,29,9.70
2014,04,17,12,30,9.70
2014,04,17,12,31,9.70
2014,04,17,12,32,9.70
2014,04,17,12,33,9.90
2014,04,17,12,34,9.90
2014,04,17,12,35,9.90
2014,04,17,12,36,9.90
2014,04,17,12,37,9.90
2014,04,17,12,38,9.90
2014,04,17,12,39,9.90
2014,04,17,12,40,9.90
2014,04,17,12,41,9.90
2014,04,17,12,42,9.90
2014,04,17,12,43,9.90
2014,04,17,12,44,9.90
2014,04,17,12,45,9.90
2014,04,17,12,46,9.90
2014,04,17,12,47,9.90
2014,04,17,12,48,9.90
2014,04,17,12,49,9.90
2014,04,17,12,50,9.90
2014,04,17,12,51,9.90
2014,04,17,12,52,9.90
2014,04,17,12,53,9.90
2014,04,17,12,54,9.90
2014,04,17,12,55,9.90
2014,04,17,12,56,9.90
2014,04,17,12,57,9.90
2014,04,17,12,58,9.90
2014,04,17,12,59,9.90
2014,04,17,13,00,9.90
2014,04,17,13,01,9.90
2014,04,17,13,02,9.90
2014,04,17,13,03,9.90
2014,04,17,13,04,9.90
2014,04,17,13,05,9.90
2014,04,17,13,06,9.90
2014,04,17,13,07,9.90
2014,04,17,13,08,9.90
2014,04,17,13,09,9.90
2014,04,17,13,10,9.90
2014,04,17,13,11,9.90
2014,04,17,13,12,9.90
2014,04,17,13,13,9.90
2014,04,17,13,14,9.90
2014,04,17,13,15,9.90
2014,04,17,13,16,9.90
2014,04,17,13,17,9.90
2014,04,17,13,18,9.90
2014,04,17,13,19,9.90
2014,04,17,13,20,9.90
2014,04,17,13,21,9.90
2014,04,17,13,22,9.90
2014,04,17,13,23,9.90
2014,04,17,13,24,9.90
2014,04,17,13,25,9.90
2014,04,17,13,26,9.90
2014,04,17,13,27,9.90
2014,04,17,13,28,9.90
2014,04,17,13,29,9.90
2014,04,17,13,30,9.90
2014,04,17,13,31,9.90
2014,04,17,13,32,9.90
2014,04,17,13,33,10.30
2014,04,17,13,34,10.30
2014,04,17,13,35,10.30
2014,04,17,13,36,10.30
2014,04,17,13,37,10.30
2014,04,17,13,38,10.30
2014,04,17,13,39,10.30
2014,04,17,13,40,10.30
2014,04,17,13,41,10.30
2014,04,17,13,42,10.30
2014,04,17,13,43,10.30
2014,04,17,13,44,10.30
2014,04,17,13,45,10.30
2014,04,17,13,46,10.30
2014,04,17,13,47,10.30
2014,04,17,13,48,10.30
2014,04,17,13,49,10.30
2014,04,17,13,50,10.30
2014,04,17,13,51,10.30
2014,04,17,13,52,10.30
2014,04,17,13,53,10.30
2014,04,17,13,54,10.30
2014,04,17,13,55,10.30
2014,04,17,13,56,10.30
2014,04,17,13,57,10.30
2014,04,17,13,58,10.30
2014,04,17,13,59,10.30
2014,04,17,14,00,10.30
2014,04,17,14,01,10.30
2014,04,17,14,02,10.30
2014,04,17,14,03,10.30
2014,04,17,14,04,10.30
2014,04,17,14,05,10.30
2014,04,17,14,06,10.30
2014,04,17,14,07,10.30
2014,04,17,14,08,10.30
2014,04,17,14,09,10.30
2014,04,17,14,10,10.30
2014,04,17,14,11,10.30
2014,04,17,14,12,10.30
2014,04,17,14,13,10.30
2014,04,17,14,14,10.30
2014,04,17,14,15,10.30
2014,04,17,14,16,10.30
2014,04,17,14,17,10.30
2014,04,17,14,18,10.30
2014,04,17,14,19,10.30
2014,04,17,14,20,10.30
2014,04,17,14,21,10.30
2014,04,17,14,22,10.30
2014,04,17,14,23,10.30
2014,04,17,14,24,10.30
2014,04,17,14,25,10.30
2014,04,17,14,26,10.30
2014,04,17,14,27,10.30
2014,04,17,14,28,10.30
2014,04,17,14,29,10.30
2014,04,17,14,30,10.30
2014,04,17,14,31,10.30
2014,04,17,14,32,10.30
2014,04,17,14,33,10.30
2014,04,17,14,34,10.00
2014,04,17,14,35,10.00
2014,04,17,14,36,10.00
2014,04,17,14,37,10.00
2014,04,17,14,38,10.00
2014,04,17,14,39,10.00
2014,04,17,14,40,10.00
2014,04,17,14,41,10.00
2014,04,17,14,42,10.00
2014,04,17,14,43,10.00
2014,04,17,14,44,10.00
2014,04,17,14,45,10.00
2014,04,17,14,46,10.00
2014,04,17,14,47,10.00
2014,04,17,14,48,10.00
2014,04,17,14,49,10.00
2014,04,17,14,50,10.00
2014,04,17,14,51,10.00
2014,04,17,14,52,10.00
2014,04,17,14,53,10.00
2014,04,17,14,54,10.00
2014,04,17,14,55,10.00
2014,04,17,14,56,10.00
2014,04,17,14,57,10.00
2014,04,17,14,58,10.00
2014,04,17,14,59,10.00
2014,04,17,15,00,10.00
2014,04,17,15,01,10.00
2014,04,17,15,02,10.00
2014,04,17,15,03,10.00
2014,04,17,15,04,10.00
2014,04,17,15,05,10.00
2014,04,17,15,06,10.00
2014,04,17,15,07,10.00
2014,04,17,15,08,10.00
2014,04,17,15,09,10.00
2014,04,17,15,10,10.00
2014,04,17,15,11,10.00
2014,04,17,15,12,10.00
2014,04,17,15,13,10.00
2014,04,17,15,14,10.00
2014,04,17,15,15,10.00
2014,04,17,15,16,10.00
2014,04,17,15,17,10.00
2014,04,17,15,18,10.00
2014,04,17,15,19,10.00
2014,04,17,15,20,10.00
2014,04,17,15,21,10.00
2014,04,17,15,22,10.00
2014,04,17,15,23,10.00
2014,04,17,15,24,10.00
2014,04,17,15,25,10.00
2014,04,17,15,26,10.00
2014,04,17,15,27,10.00
2014,04,17,15,28,10.00
2014,04,17,15,29,10.00
2014,04,17,15,30,10.00
2014,04,17,15,31,10.00
2014,04,17,15,32,10.00
2014,04,17,15,33,10.00
2014,04,17,15,34,10.00
2014,04,17,15,35,10.00
2014,04,17,15,36,10.00
2014,04,17,15,37,10.00
2014,04,17,15,38,10.00
2014,04,17,15,39,10.00
2014,04,17,15,40,10.00
2014,04,17,15,41,10.00
2014,04,17,15,42,10.00
2014,04,17,15,43,10.00
2014,04,17,15,44,10.00
2014,04,17,15,45,10.00
2014,04,17,15,46,10.00
2014,04,17,15,47,10.00
2014,04,17,15,48,10.00
2014,04,17,15,49,10.00
2014,04,17,15,50,10.00
2014,04,17,15,51,10.00
2014,04,17,15,52,10.00
2014,04,17,15,53,10.00
2014,04,17,15,54,10.00
2014,04,17,15,55,10.00
2014,04,17,15,56,10.00
2014,04,17,15,57,10.00
2014,04,17,15,58,10.00
2014,04,17,15,59,10.00
2014,04,17,16,00,10.00
2014,04,17,16,01,10.00
2014,04,17,16,02,10.00
2014,04,17,16,03,10.00
2014,04,17,16,04,10.00
2014,04,17,16,05,10.00
2014,04,17,16,06,10.00
2014,04,17,16,07,10.00
2014,04,17,16,08,10.00
2014,04,17,16,09,10.00
2014,04,17,16,10,10.00
2014,04,17,16,11,10.00
2014,04,17,16,12,10.00
2014,04,17,16,13,10.00
2014,04,17,16,14,10.00
2014,04,17,16,15,10.00
2014,04,17,16,16,10.00
2014,04,17,16,17,10.00
2014,04,17,16,18,10.00
2014,04,17,16,19,10.00
2014,04,17,16,20,10.00
2014,04,17,16,21,10.00
2014,04,17,16,22,10.00
2014,04,17,16,23,10.00
2014,04,17,16,24,10.00
2014,04,17,16,25,10.00
2014,04,17,16,26,10.00
2014,04,17,16,27,10.00
2014,04,17,16,28,10.00
2014,04,17,16,29,10.00
2014,04,17,16,30,10.00
2014,04,17,16,31,10.00
2014,04,17,16,32,10.00
2014,04,17,16,33,10.00
2014,04,17,16,34,10.00
2014,04,17,16,35,10.00
2014,04,17,16,36,9.90
2014,04,17,16,37,9.90
2014,04,17,16,38,9.90
2014,04,17,16,39,9.90
2014,04,17,16,40,9.90
2014,04,17,16,41,9.90
2014,04,17,16,42,9.90
2014,04,17,16,43,9.90
2014,04,17,16,44,9.90
2014,04,17,16,45,9.90
2014,04,17,16,46,9.90
2014,04,17,16,47,9.90
2014,04,17,16,48,9.90
2014,04,17,16,49,9.90
2014,04,17,16,50,9.90
2014,04,17,16,51,9.90
2014,04,17,16,52,9.90
2014,04,17,16,53,9.90
2014,04,17,16,54,9.90
2014,04,17,16,55,9.90
2014,04,17,16,56,9.90
2014,04,17,16,57,9.90
2014,04,17,16,58,9.90
2014,04,17,16,59,9.90
2014,04,17,17,00,9.90
2014,04,17,17,01,9.90
2014,04,17,17,02,9.90
2014,04,17,17,03,9.90
2014,04,17,17,04,9.90
2014,04,17,17,05,9.90
2014,04,17,17,06,9.90
2014,04,17,17,07,9.90
2014,04,17,17,08,9.90
2014,04,17,17,09,9.90
2014,04,17,17,10,9.90
2014,04,17,17,11,9.90
2014,04,17,17,12,9.90
2014,04,17,17,13,9.90
2014,04,17,17,14,9.90
2014,04,17,17,15,9.90
2014,04,17,17,16,9.90
2014,04,17,17,17,9.90
2014,04,17,17,18,9.90
2014,04,17,17,19,9.90
2014,04,17,17,20,9.90
2014,04,17,17,21,9.90
2014,04,17,17,22,9.90
2014,04,17,17,23,9.90
2014,04,17,17,24,9.90
2014,04,17,17,25,9.90
2014,04,17,17,26,9.90
2014,04,17,17,27,9.90
2014,04,17,17,28,9.90
2014,04,17,17,29,9.90
2014,04,17,17,30,9.90
2014,04,17,17,31,9.90
2014,04,17,17,32,9.90
2014,04,17,17,33,9.90
2014,04,17,17,34,9.90
2014,04,17,17,35,9.90
2014,04,17,17,36,9.30
2014,04,17,17,37,9.30
2014,04,17,17,38,9.30
2014,04,17,17,39,9.30
2014,04,17,17,40,9.30
2014,04,17,17,41,9.30
2014,04,17,17,42,9.30
2014,04,17,17,43,9.30
2014,04,17,17,44,9.30
2014,04,17,17,45,9.30
2014,04,17,17,46,9.30
2014,04,17,17,47,9.30
2014,04,17,17,48,9.30
2014,04,17,17,49,9.30
2014,04,17,17,50,9.30
2014,04,17,17,51,9.30
2014,04,17,17,52,9.30
2014,04,17,17,53,9.30
2014,04,17,17,54,9.30
2014,04,17,17,55,9.30
2014,04,17,17,56,9.30
2014,04,17,17,57,9.30
2014,04,17,17,58,9.30
2014,04,17,17,59,9.30
2014,04,17,18,00,9.30
2014,04,17,18,01,9.30
2014,04,17,18,02,9.30
2014,04,17,18,03,9.30
2014,04,17,18,04,9.30
2014,04,17,18,05,9.30
2014,04,17,18,06,9.30
2014,04,17,18,07,9.30
2014,04,17,18,08,9.30
2014,04,17,18,09,9.30
2014,04,17,18,10,9.30
2014,04,17,18,11,9.30
2014,04,17,18,12,9.30
2014,04,17,18,13,9.30
2014,04,17,18,14,9.30
2014,04,17,18,15,9.30
2014,04,17,18,16,9.30
2014,04,17,18,17,9.30
2014,04,17,18,18,9.30
2014,04,17,18,19,9.30
2014,04,17,18,20,9.30
2014,04,17,18,21,9.30
2014,04,17,18,22,9.30
2014,04,17,18,23,9.30
2014,04,17,18,24,9.30
2014,04,17,18,25,9.30
2014,04,17,18,26,9.30
2014,04,17,18,27,9.30
2014,04,17,18,28,9.30
2014,04,17,18,29,9.30
2014,04,17,18,30,9.30
2014,04,17,18,31,9.30
2014,04,17,18,32,9.30
2014,04,17,18,33,9.30
2014,04,17,18,34,9.30
2014,04,17,18,35,9.30
2014,04,17,18,36,9.30
2014,04,17,18,37,8.20
2014,04,17,18,38,8.20
2014,04,17,18,39,8.20
2014,04,17,18,40,8.20
2014,04,17,18,41,8.20
2014,04,17,18,42,8.20
2014,04,17,18,43,8.20
2014,04,17,18,44,8.20
2014,04,17,18,45,8.20
2014,04,17,18,46,8.20
2014,04,17,18,47,8.20
2014,04,17,18,48,8.20
2014,04,17,18,49,8.20
2014,04,17,18,50,8.20
2014,04,17,18,51,8.20
2014,04,17,18,52,8.20
2014,04,17,18,53,8.20
2014,04,17,18,54,8.20
2014,04,17,18,55,8.20
2014,04,17,18,56,8.20
2014,04,17,18,57,8.20
2014,04,17,18,58,8.20
2014,04,17,18,59,8.20
2014,04,17,19,00,8.20
2014,04,17,19,01,8.20
2014,04,17,19,02,8.20
2014,04,17,19,03,8.20
2014,04,17,19,04,8.20
2014,04,17,19,05,8.20
2014,04,17,19,06,8.20
2014,04,17,19,07,8.20
2014,04,17,19,08,8.20
2014,04,17,19,09,8.20
2014,04,17,19,10,8.20
2014,04,17,19,11,8.20
2014,04,17,19,12,8.20
2014,04,17,19,13,8.20
2014,04,17,19,14,8.20
2014,04,17,19,15,8.20
2014,04,17,19,16,8.20
2014,04,17,19,17,8.20
2014,04,17,19,18,8.20
2014,04,17,19,19,8.20
2014,04,17,19,20,8.20
2014,04,17,19,21,8.20
2014,04,17,19,22,8.20
2014,04,17,19,23,8.20
2014,04,17,19,24,8.20
2014,04,17,19,25,8.20